User: anonymous   Login
Location: Unspecified
(0.0000°N, 0.0000°E)
Time: 06:53:36
(UTC+02:00)
Language:

Centaur D-1AR AC-41 - Orbit

View from above orbital plane
View from above orbital plane
View from above satellite
View from above satellite

Ground track
Ground track

The orbit data is extracted from the following two-line orbital elements,

1 10976U 78068B   16241.99780459 -.00000152  00000-0  50409-3 0  9997
2 10976  21.6868 304.0046 7170015  78.2020 290.7082  2.22303734309751
Epoch (UTC): 28 August 2016 23:56:50
Eccentricity: 0.7170015
inclination: 21.6868°
perigee height: 640 km
apogee height: 36202 km
right ascension of ascending node: 304.0046°
argument of perigee: 78.2020°
revolutions per day: 2.22303734
mean anomaly at epoch: 290.7082°
orbit number at epoch: 30975

The dashed part of the orbit path shows where the satellite is in the earth's shadow,  

DLR